Weather History for KLEX - September, 2011

Change the Weather History Date:

Saturday, September 17, 2011

  Actual Average Record
Temperature  
Mean Temperature 60 °F 68 °F  
Max Temperature 73 °F 78 °F 94 °F (1954)
Min Temperature 47 °F 57 °F 41 °F (2000)
Degree Days  
Heating Degree Days 5 2  
Month to date heating degree days 43 10  
Since 1 July heating degree days 43 12  
Cooling Degree Days 0 4  
Month to date cooling degree days 96 106  
Year to date cooling degree days 1283 1123  
Growing Degree Days 9 (Base 50)    
Moisture  
Dew Point 50 °F    
Average Humidity 71    
Maximum Humidity 93    
Minimum Humidity 49    
Precipitation  
Precipitation 0.00 in 0.10 in 3.05 in (1960)
Month to date precipitation 3.62 1.66  
Year to date precipitation 47.48 33.33  
Snow  
Snow 0.00 in 0.00 in - ()
Month to date snowfall 0.0 0.0  
Since 1 July snowfall 0.0 0.0  
Since 1 September snowfall 0.0 0.0  
Snow Depth 0.00 in    
Sea Level Pressure  
Sea Level Pressure 30.23 in    
Wind  
Wind Speed 3 mph (ENE)    
Max Wind Speed 9 mph    
Max Gust Speed 12 mph    
Visibility 10 miles    
Events      
T = Trace of Precipitation, MM = Missing Value Source: NWS Daily Summary

Daily Weather History Graph

Daily Weather History Graph

Search for Another Location

Airport or City:

Trip Planner

Search our weather history database for the weather conditions in past years. The results will help you decide how hot, cold, wet, or windy it might be!

Date:

Astronomy

Sep. 17, 2011 Rise Set
Actual Time 7:21 AM EDT 7:43 PM EDT
Civil Twilight 6:55 AM EDT 8:10 PM EDT
Nautical Twilight 6:24 AM EDT 8:40 PM EDT
Astronomical Twilight 5:52 AM EDT 9:12 PM EDT
Moon 10:19 PM EDT (9/17) 12:17 PM EDT (9/17)
Length of Visible Light 13h 14m
Length of Day
12h 22m
Waning Gibbous, 77% of the Moon is Illuminated
Sep 17
Waning Gibbous
Sep 20
Last Quarter
Sep 27
New
Oct 3
First Quarter
Oct 11
Full

Hourly Weather History & Observations

Time (EDT) Temp. Windchill Dew Point Humidity Pressure Visibility Wind Dir Wind Speed Gust Speed Precip Events Conditions
12:54 AM 48.9 °F - 44.1 °F 83% 30.24 in 10.0 mi NE 9.2 mph - N/A   Clear
1:54 AM 50.0 °F - 45.0 °F 83% 30.23 in 10.0 mi NNE 3.5 mph - N/A   Mostly Cloudy
2:54 AM 50.0 °F - 44.6 °F 82% 30.22 in 10.0 mi ENE 5.8 mph - N/A   Scattered Clouds
3:54 AM 48.9 °F - 45.0 °F 86% 30.22 in 10.0 mi NNE 5.8 mph - N/A   Clear
4:54 AM 50.0 °F - 46.0 °F 86% 30.20 in 10.0 mi ENE 6.9 mph - N/A   Clear
5:54 AM 48.0 °F - 45.0 °F 89% 30.22 in 10.0 mi ENE 3.5 mph - N/A   Clear
6:54 AM 46.4 °F 44.3 °F 44.6 °F 93% 30.23 in 10.0 mi ENE 4.6 mph - N/A   Clear
7:54 AM 50.0 °F - 46.9 °F 89% 30.26 in 10.0 mi Calm Calm - N/A   Mostly Cloudy
8:54 AM 53.1 °F - 48.0 °F 83% 30.26 in 10.0 mi ESE 3.5 mph - N/A   Clear
9:54 AM 55.9 °F - 48.9 °F 77% 30.26 in 10.0 mi Calm Calm - N/A   Clear
10:54 AM 60.1 °F - 51.1 °F 72% 30.26 in 10.0 mi Calm Calm - N/A   Partly Cloudy
11:54 AM 64.0 °F - 53.1 °F 67% 30.27 in 10.0 mi Calm Calm - N/A   Clear
12:54 PM 66.0 °F - 54.0 °F 65% 30.26 in 10.0 mi Calm Calm - N/A   Partly Cloudy
1:54 PM 66.2 °F - 53.6 °F 64% 30.25 in 10.0 mi WSW 3.5 mph - N/A   Scattered Clouds
2:54 PM 71.1 °F - 54.0 °F 55% 30.22 in 10.0 mi Calm Calm - 0.00 in   Partly Cloudy
3:54 PM 72.0 °F - 52.0 °F 49% 30.20 in 10.0 mi Calm Calm - N/A   Clear
4:54 PM 71.6 °F - 51.8 °F 50% 30.20 in 10.0 mi Calm Calm - N/A   Clear
5:54 PM 72.0 °F - 52.0 °F 49% 30.20 in 10.0 mi Calm Calm - N/A   Clear
6:54 PM 71.1 °F - 52.0 °F 51% 30.21 in 10.0 mi Calm Calm - N/A   Clear
7:54 PM 68.0 °F - 53.6 °F 60% 30.21 in 10.0 mi NNE 3.5 mph - N/A   Clear
8:54 PM 63.0 °F - 54.0 °F 72% 30.21 in 10.0 mi NE 6.9 mph - N/A   Clear
9:54 PM 62.1 °F - 53.1 °F 72% 30.23 in 10.0 mi ENE 5.8 mph - N/A   Clear
10:54 PM 62.6 °F - 53.6 °F 72% 30.23 in 10.0 mi East 5.8 mph - N/A   Clear
11:54 PM 62.1 °F - 53.1 °F 72% 30.22 in 10.0 mi East 5.8 mph - N/A   Clear